| time (UTC) | temp C | wind direction | speed KPH | gust KPH | rain 1hr cm | rain 24hr cm | rain mn cm | humidity % | barometer mb |
| 20260503051332 | 12 | 350 | 0.0 | 1.6 | 0.00 | 0.00 | 0.00 | 46 | 1017.0 |
| 20260503050850 | 12 | 341 | 0.0 | 1.6 | 0.00 | 0.00 | 0.00 | 47 | 1017.0 |
| 20260503050332 | 12 | 340 | 0.0 | 1.6 | 0.00 | 0.00 | 0.00 | 47 | 1017.0 |
| 20260503045833 | 12 | 340 | 0.0 | 0.0 | 0.00 | 0.00 | 0.00 | 47 | 1017.0 |
| 20260503045331 | 12 | 344 | 0.0 | 0.0 | 0.00 | 0.00 | 0.00 | 46 | 1017.0 |
| 20260503044832 | 12 | 341 | 0.0 | 0.0 | 0.00 | 0.00 | 0.00 | 44 | 1017.0 |
| 20260503044334 | 12 | 342 | 0.0 | 0.0 | 0.00 | 0.00 | 0.00 | 43 | 1017.0 |
| 20260503043833 | 12 | 344 | 0.0 | 0.0 | 0.00 | 0.00 | 0.00 | 42 | 1017.0 |
| 20260503043331 | 12 | 350 | 0.0 | 0.0 | 0.00 | 0.00 | 0.00 | 42 | 1017.0 |
| 20260503042832 | 12 | 350 | 0.0 | 0.0 | 0.00 | 0.00 | 0.00 | 42 | 1017.0 |
| 20260503042334 | 12 | 350 | 0.0 | 0.0 | 0.00 | 0.00 | 0.00 | 41 | 1016.9 |
| 20260503041832 | 12 | 355 | 0.0 | 0.0 | 0.00 | 0.00 | 0.00 | 39 | 1016.9 |
| 20260503041331 | 12 | 355 | 0.0 | 0.0 | 0.00 | 0.00 | 0.00 | 38 | 1016.8 |
| 20260503040833 | 12 | 355 | 0.0 | 0.0 | 0.00 | 0.00 | 0.00 | 38 | 1016.8 |
| 20260503040330 | 12 | 9 | 0.0 | 0.0 | 0.00 | 0.00 | 0.00 | 39 | 1016.8 |
| 20260503035829 | 12 | 350 | 0.0 | 0.0 | 0.00 | 0.00 | 0.00 | 40 | 1016.7 |
| 20260503035333 | 13 | 355 | 0.0 | 0.0 | 0.00 | 0.00 | 0.00 | 41 | 1016.6 |
| 20260503034830 | 13 | 355 | 0.0 | 0.0 | 0.00 | 0.00 | 0.00 | 40 | 1016.6 |
| 20260503034331 | 13 | 360 | 0.0 | 0.0 | 0.00 | 0.00 | 0.00 | 39 | 1016.5 |
| 20260503033830 | 13 | 360 | 0.0 | 0.0 | 0.00 | 0.00 | 0.00 | 39 | 1016.4 |
| 20260503033329 | 13 | 4 | 0.0 | 0.0 | 0.00 | 0.00 | 0.00 | 37 | 1016.4 |
| 20260503032852 | 13 | 360 | 0.0 | 0.0 | 0.00 | 0.00 | 0.00 | 36 | 1016.4 |
| 20260503032333 | 13 | 355 | 0.0 | 0.0 | 0.00 | 0.00 | 0.00 | 34 | 1016.4 |
| 20260503031831 | 13 | 350 | 0.0 | 0.0 | 0.00 | 0.00 | 0.00 | 32 | 1016.3 |
| 20260503031328 | 13 | 350 | 0.0 | 0.0 | 0.00 | 0.00 | 0.00 | 32 | 1016.3 |
| 20260503030829 | 12 | 350 | 0.0 | 0.0 | 0.00 | 0.00 | 0.00 | 32 | 1016.3 |
| 20260503030328 | 12 | 350 | 0.0 | 0.0 | 0.00 | 0.00 | 0.00 | 33 | 1016.2 |
| 20260503025829 | 12 | 350 | 0.0 | 0.0 | 0.00 | 0.00 | 0.00 | 33 | 1016.3 |
| 20260503025328 | 12 | 350 | 0.0 | 0.0 | 0.00 | 0.00 | 0.00 | 30 | 1016.2 |
| 20260503024828 | 12 | 350 | 0.0 | 0.0 | 0.00 | 0.00 | 0.00 | 30 | 1016.2 |
| 20260503024330 | 13 | 350 | 0.0 | 0.0 | 0.00 | 0.00 | 0.00 | 29 | 1016.2 |
| 20260503023830 | 12 | 345 | 0.0 | 0.0 | 0.00 | 0.00 | 0.00 | 26 | 1016.2 |
| 20260503023328 | 12 | 346 | 0.0 | 0.0 | 0.00 | 0.00 | 0.00 | 27 | 1016.2 |
| 20260503022827 | 12 | 331 | 0.0 | 0.0 | 0.00 | 0.00 | 0.00 | 29 | 1016.2 |
| 20260503022325 | 13 | 331 | 0.0 | 0.0 | 0.00 | 0.00 | 0.00 | 30 | 1016.2 |
| 20260503021823 | 13 | 331 | 0.0 | 0.0 | 0.00 | 0.00 | 0.00 | 30 | 1016.2 |
| 20260503021324 | 13 | 331 | 0.0 | 1.6 | 0.00 | 0.00 | 0.00 | 30 | 1016.2 |
| 20260503020845 | 13 | 331 | 0.0 | 0.0 | 0.00 | 0.00 | 0.00 | 27 | 1016.2 |
| 20260503020321 | 13 | 331 | 0.0 | 0.0 | 0.00 | 0.00 | 0.00 | 30 | 1016.2 |
| 20260503015820 | 13 | 331 | 0.0 | 0.0 | 0.00 | 0.00 | 0.00 | 31 | 1016.3 |
| 20260503015318 | 13 | 331 | 0.0 | 0.0 | 0.00 | 0.00 | 0.00 | 33 | 1016.3 |
| 20260503014818 | 13 | 331 | 0.0 | 0.0 | 0.00 | 0.00 | 0.00 | 34 | 1016.4 |
| 20260503014317 | 13 | 331 | 0.0 | 0.0 | 0.00 | 0.00 | 0.00 | 36 | 1016.3 |
| 20260503013835 | 13 | 331 | 0.0 | 0.0 | 0.00 | 0.00 | 0.00 | 36 | 1016.3 |
| 20260503013333 | 13 | 331 | 0.0 | 0.0 | 0.00 | 0.00 | 0.00 | 37 | 1016.3 |
| 20260503012835 | 13 | 331 | 0.0 | 0.0 | 0.00 | 0.00 | 0.00 | 37 | 1016.4 |
| 20260503012337 | 13 | 331 | 0.0 | 0.0 | 0.00 | 0.00 | 0.00 | 40 | 1016.4 |
| 20260503011819 | 13 | 331 | 0.0 | 0.0 | 0.00 | 0.00 | 0.00 | 39 | 1016.4 |
| 20260503011340 | 13 | 331 | 0.0 | 0.0 | 0.00 | 0.00 | 0.00 | 40 | 1016.4 |
| 20260503010817 | 13 | 331 | 0.0 | 0.0 | 0.00 | 0.00 | 0.00 | 41 | 1016.4 |
| 20260503010317 | 13 | 331 | 0.0 | 0.0 | 0.00 | 0.00 | 0.00 | 39 | 1016.4 |
| 20260503005836 | 13 | 323 | 0.0 | 0.0 | 0.00 | 0.00 | 0.00 | 41 | 1016.4 |
| 20260503005335 | 13 | 327 | 0.0 | 1.6 | 0.00 | 0.00 | 0.00 | 42 | 1016.4 |
| 20260503004834 | 13 | 345 | 0.0 | 1.6 | 0.00 | 0.00 | 0.00 | 42 | 1016.5 |
| 20260503004332 | 13 | 334 | 0.0 | 1.6 | 0.00 | 0.00 | 0.00 | 44 | 1016.5 |
| 20260503003832 | 13 | 342 | 0.0 | 1.6 | 0.00 | 0.00 | 0.00 | 44 | 1016.6 |
| 20260503003334 | 13 | 333 | 0.0 | 0.0 | 0.00 | 0.00 | 0.00 | 43 | 1016.5 |
| 20260503002834 | 13 | 355 | 0.0 | 1.6 | 0.00 | 0.00 | 0.00 | 48 | 1016.6 |
| 20260503002352 | 13 | 6 | 0.0 | 1.6 | 0.00 | 0.00 | 0.00 | 47 | 1016.6 |
| 20260503001830 | 13 | 8 | 0.0 | 1.6 | 0.00 | 0.00 | 0.00 | 48 | 1016.6 |
| 20260503001354 | 14 | 4 | 0.0 | 1.6 | 0.00 | 0.00 | 0.00 | 48 | 1016.6 |
| 20260503000834 | 14 | 321 | 0.0 | 1.6 | 0.00 | 0.00 | 0.00 | 49 | 1016.5 |
| 20260503000333 | 14 | 329 | 0.0 | 1.6 | 0.00 | 0.00 | 0.00 | 48 | 1016.6 |
| 20260502235831 | 14 | 350 | 0.0 | 1.6 | 0.00 | 0.00 | 0.00 | 49 | 1016.6 |
| 20260502235333 | 15 | 333 | 0.0 | 1.6 | 0.00 | 0.00 | 0.00 | 48 | 1016.6 |
| 20260502234830 | 15 | 11 | 0.0 | 0.0 | 0.00 | 0.00 | 0.00 | 44 | 1016.6 |
| 20260502234332 | 16 | 337 | 0.0 | 9.7 | 0.00 | 0.00 | 0.00 | 44 | 1016.7 |
| 20260502233833 | 15 | 258 | 1.6 | 9.7 | 0.00 | 0.00 | 0.00 | 44 | 1016.8 |
| 20260502233332 | 15 | 308 | 0.0 | 1.6 | 0.00 | 0.00 | 0.00 | 42 | 1016.7 |
| 20260502232855 | 15 | 335 | 0.0 | 0.0 | 0.00 | 0.00 | 0.00 | 42 | 1016.8 |
| 20260502232333 | 15 | 336 | 0.0 | 9.7 | 0.00 | 0.00 | 0.00 | 37 | 1016.8 |
| 20260502231832 | 16 | 226 | 0.0 | 14.5 | 0.00 | 0.00 | 0.00 | 36 | 1016.9 |
| 20260502231330 | 16 | 281 | 4.8 | 14.5 | 0.00 | 0.00 | 0.00 | 36 | 1016.9 |
| 20260502230852 | 16 | 304 | 0.0 | 6.4 | 0.00 | 0.00 | 0.00 | 39 | 1017.0 |
| 20260502230331 | 16 | 240 | 0.0 | 4.8 | 0.00 | 0.00 | 0.00 | 39 | 1017.0 |
| 20260502225848 | 15 | 314 | 0.0 | 3.2 | 0.00 | 0.00 | 0.00 | 39 | 1017.0 |
| 20260502225346 | 16 | 318 | 0.0 | 6.4 | 0.00 | 0.00 | 0.00 | 40 | 1017.1 |
| 20260502224823 | 16 | 17 | 1.6 | 6.4 | 0.00 | 0.00 | 0.00 | 38 | 1017.0 |
| 20260502224324 | 16 | 239 | 0.0 | 8.0 | 0.00 | 0.00 | 0.00 | 40 | 1017.1 |
| 20260502223826 | 16 | 285 | 1.6 | 11.3 | 0.00 | 0.00 | 0.00 | 40 | 1017.2 |
| 20260502223327 | 16 | 249 | 4.8 | 11.3 | 0.00 | 0.00 | 0.00 | 39 | 1017.3 |
| 20260502222846 | 16 | 273 | 0.0 | 12.9 | 0.00 | 0.00 | 0.00 | 39 | 1017.3 |
| 20260502222344 | 16 | 322 | 3.2 | 12.9 | 0.00 | 0.00 | 0.00 | 40 | 1017.4 |
| 20260502221821 | 16 | 340 | 0.0 | 3.2 | 0.00 | 0.00 | 0.00 | 38 | 1017.4 |
| 20260502221340 | 16 | 268 | 0.0 | 19.3 | 0.00 | 0.00 | 0.00 | 39 | 1017.4 |
| 20260502220821 | 16 | 264 | 3.2 | 19.3 | 0.00 | 0.00 | 0.00 | 39 | 1017.4 |
| 20260502220323 | 16 | 237 | 0.0 | 6.4 | 0.00 | 0.00 | 0.00 | 39 | 1017.4 |
| 20260502215841 | 16 | 13 | 0.0 | 11.3 | 0.00 | 0.00 | 0.00 | 40 | 1017.5 |
| 20260502215322 | 16 | 195 | 0.0 | 14.5 | 0.00 | 0.00 | 0.00 | 40 | 1017.5 |
| 20260502214821 | 16 | 336 | 3.2 | 14.5 | 0.00 | 0.00 | 0.00 | 38 | 1017.5 |
| 20260502214319 | 16 | 183 | 1.6 | 8.0 | 0.00 | 0.00 | 0.00 | 41 | 1017.6 |
| 20260502213817 | 15 | 195 | 1.6 | 8.0 | 0.00 | 0.00 | 0.00 | 41 | 1017.6 |
| 20260502213335 | 15 | 252 | 0.0 | 12.9 | 0.00 | 0.00 | 0.00 | 41 | 1017.7 |
| 20260502212833 | 15 | 343 | 1.6 | 12.9 | 0.00 | 0.00 | 0.00 | 42 | 1017.7 |
| 20260502212330 | 15 | 262 | 0.0 | 3.2 | 0.00 | 0.00 | 0.00 | 45 | 1017.7 |
| 20260502211832 | 15 | 283 | 1.6 | 8.0 | 0.00 | 0.00 | 0.00 | 46 | 1017.8 |
| 20260502211358 | 15 | 272 | 1.6 | 8.0 | 0.00 | 0.00 | 0.00 | 47 | 1017.9 |
| 20260502210851 | 14 | 350 | 0.0 | 6.4 | 0.00 | 0.00 | 0.00 | 50 | 1017.9 |
| 20260502210328 | 14 | 355 | 1.6 | 14.5 | 0.00 | 0.00 | 0.00 | 50 | 1017.9 |
| 20260502205846 | 13 | 296 | 11.3 | 14.5 | 0.00 | 0.00 | 0.00 | 52 | 1017.9 |
| 20260502205325 | 14 | 332 | 0.0 | 8.0 | 0.00 | 0.00 | 0.00 | 49 | 1018.0 |
| 20260502204826 | 15 | 337 | 3.2 | 8.0 | 0.00 | 0.00 | 0.00 | 48 | 1018.0 |
| 20260502204324 | 15 | 281 | 1.6 | 12.9 | 0.00 | 0.00 | 0.00 | 48 | 1018.1 |
| 20260502203822 | 15 | 302 | 0.0 | 12.9 | 0.00 | 0.00 | 0.00 | 47 | 1018.1 |
| 20260502203322 | 15 | 291 | 1.6 | 8.0 | 0.00 | 0.00 | 0.00 | 48 | 1018.1 |
| 20260502202819 | 15 | 233 | 0.0 | 22.5 | 0.00 | 0.00 | 0.00 | 46 | 1018.1 |
| 20260502202317 | 15 | 215 | 6.4 | 22.5 | 0.00 | 0.00 | 0.00 | 33 | 1018.1 |
| 20260502201835 | 15 | 181 | 8.0 | 14.5 | 0.00 | 0.00 | 0.00 | 34 | 1018.0 |
| 20260502201334 | 15 | 219 | 6.4 | 9.7 | 0.00 | 0.00 | 0.00 | 41 | 1018.2 |
| 20260502200832 | 15 | 169 | 1.6 | 6.4 | 0.00 | 0.00 | 0.00 | 45 | 1018.1 |
| 20260502200350 | 15 | 337 | 0.0 | 17.7 | 0.00 | 0.00 | 0.00 | 45 | 1018.2 |
| 20260502195827 | 15 | 195 | 9.7 | 17.7 | 0.00 | 0.00 | 0.00 | 35 | 1018.2 |
| 20260502195324 | 15 | 183 | 4.8 | 12.9 | 0.00 | 0.00 | 0.00 | 37 | 1018.3 |
| 20260502194822 | 15 | 167 | 1.6 | 16.1 | 0.00 | 0.00 | 0.00 | 36 | 1018.2 |
| 20260502194321 | 15 | 266 | 6.4 | 19.3 | 0.00 | 0.00 | 0.00 | 36 | 1018.3 |
| 20260502193818 | 15 | 275 | 6.4 | 19.3 | 0.00 | 0.00 | 0.00 | 35 | 1018.2 |
| 20260502193337 | 15 | 197 | 9.7 | 17.7 | 0.00 | 0.00 | 0.00 | 34 | 1018.3 |
| 20260502192835 | 15 | 255 | 4.8 | 16.1 | 0.00 | 0.00 | 0.00 | 37 | 1018.4 |
| 20260502192334 | 15 | 276 | 4.8 | 14.5 | 0.00 | 0.00 | 0.00 | 36 | 1018.4 |
| 20260502191833 | 15 | 224 | 8.0 | 16.1 | 0.00 | 0.00 | 0.00 | 35 | 1018.4 |
| 20260502191332 | 15 | 157 | 8.0 | 17.7 | 0.00 | 0.00 | 0.00 | 35 | 1018.4 |
| 20260502190850 | 15 | 218 | 4.8 | 20.9 | 0.00 | 0.00 | 0.00 | 36 | 1018.4 |
| 20260502190330 | 15 | 166 | 11.3 | 16.1 | 0.00 | 0.00 | 0.00 | 34 | 1018.4 |
| 20260502185828 | 15 | 304 | 4.8 | 19.3 | 0.00 | 0.00 | 0.00 | 39 | 1018.4 |
| 20260502185330 | 14 | 256 | 9.7 | 22.5 | 0.00 | 0.00 | 0.00 | 35 | 1018.4 |
| 20260502184834 | 14 | 226 | 9.7 | 22.5 | 0.00 | 0.00 | 0.00 | 36 | 1018.5 |
| 20260502184357 | 14 | 241 | 6.4 | 16.1 | 0.00 | 0.00 | 0.00 | 34 | 1018.5 |
| 20260502183834 | 14 | 226 | 8.0 | 19.3 | 0.00 | 0.00 | 0.00 | 37 | 1018.5 |
| 20260502183332 | 14 | 239 | 9.7 | 19.3 | 0.00 | 0.00 | 0.00 | 38 | 1018.6 |
| 20260502182830 | 14 | 220 | 8.0 | 17.7 | 0.00 | 0.00 | 0.00 | 37 | 1018.6 |
| 20260502182330 | 14 | 168 | 9.7 | 16.1 | 0.00 | 0.00 | 0.00 | 35 | 1018.6 |
| 20260502181855 | 14 | 277 | 6.4 | 19.3 | 0.00 | 0.00 | 0.00 | 36 | 1018.6 |
| 20260502181352 | 14 | 218 | 4.8 | 19.3 | 0.00 | 0.00 | 0.00 | 36 | 1018.7 |
| 20260502180854 | 14 | 193 | 11.3 | 19.3 | 0.00 | 0.00 | 0.00 | 35 | 1018.6 |
| 20260502180355 | 14 | 198 | 11.3 | 19.3 | 0.00 | 0.00 | 0.00 | 36 | 1018.5 |
| 20260502170352 | 13 | 192 | 6.4 | 20.9 | 0.00 | 0.00 | 0.00 | 38 | 1018.4 |
| 20260502163819 | 12 | 164 | 4.8 | 17.7 | 0.00 | 0.00 | 0.00 | 40 | 1018.2 |
| 20260502163320 | 12 | 218 | 8.0 | 19.3 | 0.00 | 0.00 | 0.00 | 40 | 1018.2 |
| 20260502162821 | 12 | 191 | 9.7 | 16.1 | 0.00 | 0.00 | 0.00 | 42 | 1018.2 |
| 20260502162318 | 12 | 216 | 8.0 | 17.7 | 0.00 | 0.00 | 0.00 | 41 | 1018.2 |
| 20260502161836 | 12 | 236 | 9.7 | 20.9 | 0.00 | 0.00 | 0.00 | 42 | 1018.3 |
| 20260502161335 | 12 | 202 | 9.7 | 20.9 | 0.00 | 0.00 | 0.00 | 42 | 1018.4 |
| 20260502160836 | 12 | 206 | 4.8 | 16.1 | 0.00 | 0.00 | 0.00 | 43 | 1018.3 |
| 20260502160334 | 12 | 202 | 8.0 | 16.1 | 0.00 | 0.00 | 0.00 | 43 | 1018.4 |
| 20260502152330 | 11 | 200 | 9.7 | 14.5 | 0.00 | 0.00 | 0.00 | 43 | 1018.2 |
| 20260502151850 | 11 | 191 | 9.7 | 16.1 | 0.00 | 0.00 | 0.00 | 42 | 1018.2 |
| 20260502151332 | 11 | 194 | 11.3 | 16.1 | 0.00 | 0.00 | 0.00 | 42 | 1018.2 |
| 20260502150829 | 11 | 189 | 8.0 | 14.5 | 0.00 | 0.00 | 0.00 | 42 | 1018.2 |
| 20260502150347 | 11 | 208 | 9.7 | 14.5 | 0.00 | 0.00 | 0.00 | 41 | 1018.2 |
| 20260502130333 | 10 | 172 | 9.7 | 12.9 | 0.00 | 0.00 | 0.00 | 43 | 1017.6 |
| 20260502123324 | 10 | 188 | 11.3 | 14.5 | 0.00 | 0.00 | 0.00 | 45 | 1017.7 |
| 20260502122843 | 10 | 184 | 11.3 | 14.5 | 0.00 | 0.00 | 0.00 | 45 | 1017.7 |
| 20260502122342 | 10 | 158 | 11.3 | 14.5 | 0.00 | 0.00 | 0.00 | 45 | 1017.7 |
| 20260502121819 | 10 | 182 | 11.3 | 12.9 | 0.00 | 0.00 | 0.00 | 45 | 1017.7 |
| 20260502121320 | 10 | 183 | 9.7 | 16.1 | 0.00 | 0.00 | 0.00 | 46 | 1017.7 |
| 20260502120837 | 10 | 195 | 11.3 | 16.1 | 0.00 | 0.00 | 0.00 | 46 | 1017.8 |
| 20260502120337 | 10 | 183 | 12.9 | 19.3 | 0.00 | 0.00 | 0.00 | 46 | 1017.8 |
| 20260502115836 | 10 | 184 | 12.9 | 19.3 | 0.00 | 0.00 | 0.00 | 45 | 1017.8 |
| 20260502115337 | 10 | 193 | 12.9 | 17.7 | 0.00 | 0.00 | 0.00 | 46 | 1017.8 |
| 20260502114818 | 10 | 188 | 14.5 | 16.1 | 0.00 | 0.00 | 0.00 | 46 | 1017.9 |
| 20260502114318 | 10 | 177 | 14.5 | 19.3 | 0.00 | 0.00 | 0.00 | 46 | 1017.9 |
| 20260502113836 | 10 | 178 | 16.1 | 24.1 | 0.00 | 0.00 | 0.00 | 46 | 1017.9 |
| 20260502113334 | 10 | 180 | 16.1 | 24.1 | 0.00 | 0.00 | 0.00 | 45 | 1017.9 |
| 20260502112833 | 10 | 177 | 19.3 | 30.6 | 0.00 | 0.00 | 0.00 | 45 | 1017.9 |
| 20260502112331 | 10 | 179 | 20.9 | 30.6 | 0.00 | 0.00 | 0.00 | 44 | 1017.9 |
| 20260502111829 | 10 | 155 | 17.7 | 29.0 | 0.00 | 0.00 | 0.00 | 44 | 1017.9 |
| 20260502111333 | 10 | 167 | 19.3 | 25.7 | 0.00 | 0.00 | 0.00 | 45 | 1017.9 |
| 20260502110833 | 10 | 166 | 17.7 | 25.7 | 0.00 | 0.00 | 0.00 | 45 | 1018.0 |
| 20260502110333 | 10 | 177 | 19.3 | 25.7 | 0.00 | 0.00 | 0.00 | 46 | 1017.9 |
| 20260502105855 | 10 | 162 | 17.7 | 22.5 | 0.00 | 0.00 | 0.00 | 47 | 1018.0 |
| 20260502105335 | 10 | 163 | 17.7 | 22.5 | 0.00 | 0.00 | 0.00 | 46 | 1018.0 |
| 20260502104833 | 10 | 158 | 16.1 | 20.9 | 0.00 | 0.00 | 0.00 | 46 | 1018.0 |
| 20260502104330 | 11 | 165 | 14.5 | 20.9 | 0.00 | 0.00 | 0.00 | 45 | 1018.0 |
| 20260502103848 | 11 | 158 | 12.9 | 19.3 | 0.00 | 0.00 | 0.00 | 47 | 1018.0 |
| 20260502103325 | 11 | 145 | 12.9 | 19.3 | 0.00 | 0.00 | 0.00 | 47 | 1018.0 |
| 20260502102823 | 11 | 152 | 14.5 | 19.3 | 0.00 | 0.00 | 0.00 | 47 | 1018.0 |
| 20260502102321 | 11 | 166 | 12.9 | 19.3 | 0.00 | 0.00 | 0.00 | 46 | 1018.0 |
| 20260502101819 | 11 | 144 | 11.3 | 16.1 | 0.00 | 0.00 | 0.00 | 45 | 1018.0 |
| 20260502101358 | 11 | 147 | 9.7 | 16.1 | 0.00 | 0.00 | 0.00 | 45 | 1018.0 |
| 20260502100836 | 11 | 145 | 9.7 | 16.1 | 0.00 | 0.00 | 0.00 | 44 | 1018.0 |
| 20260502100333 | 11 | 142 | 11.3 | 17.7 | 0.00 | 0.00 | 0.00 | 44 | 1018.0 |
| 20260502091325 | 11 | 112 | 11.3 | 14.5 | 0.00 | 0.00 | 0.00 | 42 | 1018.1 |
| 20260502090843 | 11 | 111 | 12.9 | 14.5 | 0.00 | 0.00 | 0.00 | 42 | 1018.1 |
| 20260502090321 | 11 | 115 | 11.3 | 14.5 | 0.00 | 0.00 | 0.00 | 42 | 1018.2 |
| 20260502071338 | 10 | 200 | 12.9 | 16.1 | 0.00 | 0.00 | 0.00 | 47 | 1018.4 |
| 20260502070819 | 10 | 195 | 12.9 | 16.1 | 0.00 | 0.00 | 0.00 | 47 | 1018.4 |
| 20260502070320 | 10 | 190 | 11.3 | 16.1 | 0.00 | 0.00 | 0.00 | 47 | 1018.4 |
| 20260502065821 | 10 | 200 | 12.9 | 17.7 | 0.00 | 0.00 | 0.00 | 47 | 1018.4 |
| 20260502065343 | 10 | 195 | 12.9 | 16.1 | 0.00 | 0.00 | 0.00 | 47 | 1018.4 |
| 20260502064819 | 10 | 195 | 12.9 | 17.7 | 0.00 | 0.00 | 0.00 | 47 | 1018.4 |
| 20260502064333 | 10 | 199 | 14.5 | 19.3 | 0.00 | 0.00 | 0.00 | 47 | 1018.4 |
| 20260502063832 | 10 | 197 | 12.9 | 17.7 | 0.00 | 0.00 | 0.00 | 47 | 1018.4 |
| 20260502063355 | 10 | 185 | 12.9 | 17.7 | 0.00 | 0.00 | 0.00 | 47 | 1018.4 |
| 20260502062831 | 10 | 212 | 12.9 | 16.1 | 0.00 | 0.00 | 0.00 | 47 | 1018.4 |
| 20260502062330 | 11 | 193 | 12.9 | 16.1 | 0.00 | 0.00 | 0.00 | 46 | 1018.4 |
| 20260502061828 | 11 | 196 | 14.5 | 17.7 | 0.00 | 0.00 | 0.00 | 46 | 1018.4 |
| 20260502061327 | 11 | 201 | 12.9 | 16.1 | 0.00 | 0.00 | 0.00 | 46 | 1018.3 |
| 20260502060824 | 11 | 191 | 12.9 | 17.7 | 0.00 | 0.00 | 0.00 | 46 | 1018.3 |
| 20260502060344 | 11 | 201 | 12.9 | 17.7 | 0.00 | 0.00 | 0.00 | 45 | 1018.3 |
| 20260502055821 | 11 | 185 | 12.9 | 17.7 | 0.00 | 0.00 | 0.00 | 45 | 1018.4 |
| 20260502055319 | 11 | 195 | 12.9 | 22.5 | 0.00 | 0.00 | 0.00 | 45 | 1018.3 |
| 20260502054818 | 11 | 204 | 14.5 | 22.5 | 0.00 | 0.00 | 0.00 | 45 | 1018.3 |
| 20260502054335 | 11 | 202 | 12.9 | 17.7 | 0.00 | 0.00 | 0.00 | 45 | 1018.2 |
| 20260502053833 | 11 | 204 | 11.3 | 12.9 | 0.00 | 0.00 | 0.00 | 44 | 1018.4 |
| 20260502053331 | 11 | 195 | 11.3 | 14.5 | 0.00 | 0.00 | 0.00 | 44 | 1018.4 |
| 20260502052854 | 11 | 200 | 11.3 | 17.7 | 0.00 | 0.00 | 0.00 | 44 | 1018.4 |
| 20260502052332 | 11 | 214 | 11.3 | 17.7 | 0.00 | 0.00 | 0.00 | 43 | 1018.4 |
| 20260502051830 | 11 | 189 | 8.0 | 12.9 | 0.00 | 0.00 | 0.00 | 43 | 1018.4 |